Theta_e
338 334 333 335 333 335 334 335 336 335 336 336 336 336 337 332 333 335 336 333 335 335
337 335 336 336 336 333 335 333 334 334 335 335 335 335 336 337 335 333 334 334 335 335
335 336 336 335 334 335 335 333 333 334 335 335 335 335 336 336 335 334 336 334 335 334
335 335 335 334 333 335 334 335 331 331 333 333 334 335 336 334 332 332 333 332 330 331
334 335 335 334 332 334 333 333 330 331 330 331 333 335 332 330 330 331 330 332 330 328
333 335 335 333 334 332 331 330 330 330 329 331 332 332 332 331 329 332 330 327 327 329
334 335 335 335 333 331 330 329 330 331 331 331 332 332 332 333 332 331 329 328 328 328
334 334 332 332 331 331 330 330 332 332 331 332 333 330 332 333 334 333 333 332 329 330
332 331 332 332 331 331 331 332 333 331 332 332 328 310 313 323 333 333 332 329 328 331
330 330 330 331 331 331 335 337 334 334 333 332 330 308 308 310 334 335 333 332 330 330
329 329 330 331 331 333 338 335 334 334 334 333 326 305 305 306 335 335 333 333 333 333
330 330 331 331 332 334 337 337 336 336 334 332 329 304 303 314 334 333 331 332 335 334
331 331 331 333 334 335 335 333 334 334 334 323 330 303 302 314 333 333 333 334 329 309
332 332 334 334 335 335 334 333 335 333 334 333 330 323 303 306 331 333 331 329 330 326
Wind_Speed
6 7 4 3 5 5 3 5 6 4 3 3 5 5 5 5 4 2 2 3 3 2
6 1 6 4 2 5 4 4 4 3 1 4 4 3 3 2 3 3 2 3 3 3
6 4 5 3 1 4 5 4 5 3 1 2 3 2 2 1 1 1 2 1 2 1
6 5 5 4 4 5 4 4 4 4 4 3 4 2 2 2 2 4 5 4 3 1
7 4 4 5 5 10 5 5 4 3 1 6 3 6 4 1 2 5 5 1 2 1
6 5 5 6 5 6 7 6 4 3 3 8 4 5 5 4 2 2 6 4 0 4
7 5 6 4 7 7 6 6 5 4 8 4 9 7 2 4 6 4 7 6 2 2
7 8 8 6 7 7 6 7 4 5 6 4 8 4 5 5 5 7 8 7 5 4
8 8 8 7 7 7 4 3 4 5 5 6 8 9 10 8 4 8 9 8 8 8
9 9 9 9 9 8 4 3 5 4 4 8 7 6 7 9 3 9 9 10 8 8
11 10 10 8 7 6 5 4 4 5 8 7 7 2 5 9 6 8 10 10 10 11
12 11 10 6 7 6 6 5 5 7 7 8 7 2 3 8 8 8 8 8 11 11
12 10 9 8 8 6 5 4 7 8 7 9 9 3 4 7 6 10 8 11 8 13
12 11 11 8 6 6 5 7 8 8 7 9 10 6 6 5 5 8 9 11 11 9
Wind_Direction
148 187 213 168 337 85 157 201 180 181 172 220 221 216 204 199 228 194 223 235 226 233
169 65 67 70 234 112 170 175 159 132 172 235 144 212 225 251 196 194 237 300 259 214
149 151 136 164 162 103 168 138 136 136 150 154 68 57 112 127 210 183 258 241 239 220
147 173 163 132 161 147 156 148 201 167 182 142 97 104 88 83 196 202 224 151 238 7
160 197 124 168 155 139 207 174 201 182 66 83 96 67 64 96 238 193 195 66 230 186
147 162 160 164 133 176 153 180 194 176 173 85 87 120 100 108 110 165 106 103 283 141
139 155 172 147 159 163 174 168 183 195 95 163 121 97 98 126 133 152 131 138 146 153
124 169 142 157 153 158 166 191 156 103 136 120 93 66 34 53 107 116 126 139 140 59
132 136 136 143 148 164 163 159 137 175 140 133 84 35 26 1 90 111 96 110 96 99
140 137 146 156 163 156 140 161 148 133 93 97 100 39 6 347 32 109 112 107 96 103
149 146 152 157 141 149 128 144 135 143 146 129 102 89 335 319 102 109 120 123 132 121
147 152 152 143 151 155 138 151 153 149 144 135 121 150 314 310 95 111 109 130 128 124
153 149 147 137 148 152 176 158 104 120 141 116 116 115 356 332 97 119 106 106 103 65
150 155 130 136 145 159 196 104 107 117 109 121 116 114 27 14 136 131 128 116 116 103